Tracking 19706 objects as of 16-Jun-2019
HD Live streaming from Space Station
objects crossing your sky now

STARLINK OBJ AY

Track STARLINK OBJ AY now!
10-day predictions


NORAD ID: 44281
Int'l Code: 2019-029AY
Perigee: 532.5 km
Apogee: 533.4 km
Inclination: 53.0 °
Period: 95.1 minutes
Semi major axis: 6903 km
RCS: Unknown
Launch date: May 24, 2019
Source: United States (US)
Launch site: AIR FORCE EASTERN TEST RANGE (AFETR)
aabbcc
Your satellite tracking list
Your tracking list is empty




NASA's NSSDC Master Catalog

Two Line Element Set (TLE):
1 44281U 19029AY  19165.25948040 -.00594419  00000-0 -35262-1 0  9997
2 44281  53.0023  76.8135 0000614  95.1985 264.9077 15.13406634  3283
Source of the keplerian elements: AFSPC